AirNav   Air Wisconsin pilot careers
 
 943 users online  

KCVK Sharp County Regional Airport
Ash Flat, Arkansas, USA

GOING TO ASH FLAT?


FAA INFORMATION EFFECTIVE 06 DECEMBER 2018

Location

FAA Identifier: CVK
Lat/Long: 36-15-53.6000N / 091-33-45.6000W
36-15.893333N / 091-33.760000W
36.2648889 / -91.5626667
(estimated)
Elevation: 717.1 ft. / 218.6 m (surveyed)
Variation: 02E (1995)
From city: 3 miles NE of ASH FLAT, AR
Time zone: UTC -6 (UTC -5 during Daylight Saving Time)
Zip code: 72529

Airport Operations

Airport use: Open to the public
Activation date: 04/1963
Control tower: no
ARTCC: MEMPHIS CENTER
FSS: JONESBORO FLIGHT SERVICE STATION
NOTAMs facility: JBR (NOTAM-D service available)
Attendance: MON-FRI 0800-1700
Wind indicator: yes
Segmented circle: no
Lights: ACTVT MIRL RY 04/22 - CTAF.
Beacon: white-green (lighted land airport)
Operates sunset to sunrise.

Airport Communications

CTAF/UNICOM: 122.7
  • APCH/DEP SVC PROVIDED BY MEMPHIS ARTCC ON FREQS 120.075/289.4 (WALNUT RIDGE RCAG).

Nearby radio navigation aids

VOR radial/distance  VOR name  Freq  Var
ARGr283/30.9WALNUT RIDGE VORTAC114.5004E

 
NDB name  Hdg/Dist  Freq  Var  ID
LAWRENCE COUNTY275/31.122701ETNZ - -. --..

Airport Services

Fuel available: 100LL JET-A
SELF-SERVICE FUEL AVBL 24 HRS WITH CREDIT CARD (100LL & JET A)
Parking: hangars and tiedowns
Airframe service: MAJOR
Powerplant service: MAJOR

Runway Information

Runway 4/22

Dimensions: 5158 x 75 ft. / 1572 x 23 m
Surface: asphalt, in good condition
Weight bearing capacity: 
Single wheel: 12.5
Runway edge lights: medium intensity
RUNWAY 4  RUNWAY 22
Latitude: 36-15.556412N36-16.230408N
Longitude: 091-34.080208W091-33.440563W
Elevation: 669.3 ft.716.8 ft.
Gradient: 0.5%0.5%
Traffic pattern: leftleft
Runway heading: 036 magnetic, 038 true216 magnetic, 218 true
Displaced threshold: no154 ft.
Markings: nonprecision, in good conditionnonprecision, in good condition
Touchdown point: yes, no lightsyes, no lights
Obstructions: 25 ft. trees, 600 ft. from runway, 16:1 slope to clear6 ft. tree, 500 ft. from runway
APCH SLOPE 50:1 TO DSPLCD THLD.

Airport Ownership and Management from official FAA records

Ownership: Publicly-owned
Owner: SHARP COUNTY RGNL ARPT AUTHORITY
P.O. BOX 881
HARDY, AR 72542
Phone 870-856-4300
Manager: NONE, FBO LARRY KYRAL
P.O. BOX 881
HARDY, AR 72542
Phone 870-612-0031

Airport Operational Statistics

Aircraft based on the field: 9
Single engine airplanes: 9
    
Aircraft operations: avg 44/week *
48% transient general aviation
48% local general aviation
4% military
* for 12-month period ending 30 June 2017

Additional Remarks

RY 22 HAS 15+ FT DROP OFF 150 FT FM END OF PAVEMENT (304 FT FM DSPLCD THLD).

Instrument Procedures

NOTE: All procedures below are presented as PDF files. If you need a reader for these files, you should download the free Adobe Reader.

NOT FOR NAVIGATION. Please procure official charts for flight.
FAA instrument procedures published for use from 6 December 2018 at 0901Z to 3 January 2019 at 0900Z.

 
IAPs - Instrument Approach Procedures
RNAV (GPS) RWY 04   download (173KB)
RNAV (GPS) RWY 22   download (163KB)
NOTE: Special Take-Off Minimums/Departure Procedures apply   download (131KB)

Other nearby airports with instrument procedures:

6M2 - Horseshoe Bend Airport (10 nm W)
42A - Melbourne Municipal Airport - John E Miller Field (17 nm SW)
M70 - Pocahontas Municipal Airport (29 nm E)
KARG - Walnut Ridge Regional Airport (32 nm E)
KBVX - Batesville Regional Airport (33 nm S)
 
Loc | Ops | Rwys | IFR | FBO | Links
Com | Nav | Svcs | Stats | Notes


 
Area around KCVK (Sharp County Regional Airport)
 
Road maps at: MapQuest Bing Google
 
Aerial photo
WARNING: Photo may not be current or correct
Aerial photo of KCVK (Sharp County Regional Airport)
Photo courtesy of the Arkansas Department of Aeronautics
Taken in the Spring of 2007

Do you have a better or more recent aerial photo of Sharp County Regional Airport that you would like to share? If so, please send us your photo.

 
Sectional chart

 
Airport distance calculator
Flying to Sharp County Regional Airport? Find the distance to fly.

From to KCVK

Sunrise and sunset
Times for 13-Dec-2018
 Local
(UTC-6)
 Zulu
(UTC)
Morning civil twilight06:4112:41
Sunrise07:1013:10
Sunset16:5122:51
Evening civil twilight17:2023:20

Current date and time
Zulu (UTC)  13-Dec-2018 23:46:37
Local (UTC-6)  13-Dec-2018 17:46:37
 
METAR
KARG 
33nm E 
132256Z AUTO 02005KT 10SM -RA FEW019 OVC065 11/10 A2990 RMK AO2 RAE2157B28 SLP125 P0001 T01060100
KBVX 
33nm S 
132339Z AUTO 00000KT 1 3/4SM RA BR OVC004 11/11 A2987 RMK AO2 P0021
KUNO 
41nm NW 
132317Z AUTO 11007KT 5SM RA BR OVC006 10/09 A2989 RMK AO2 CIG 004V010 P0005 T01000094
KM19 
42nm SE 
132256Z AUTO 04006KT 6SM -RA BR OVC029 11/11 A2988 RMK AO2 SLP124 P0003 T01110106
KFLP 
44nm W 
132256Z AUTO 12004KT 5SM -RA BR OVC004 11/11 A2987 RMK AO2 SLP112 P0008 T01060106
KBPK 
44nm W 
132253Z AUTO 13006KT 8SM -RA OVC005 11/10 A2985 RMK AO2 SLP108 P0008 T01060100
K4M9 
45nm E 
132335Z AUTO 02005KT 10SM SCT050 OVC070 11/11 A2991 RMK AO2 PWINO
TAF
KBPK 
44nm W 
132154Z 1322/1418 14007KT 6SM -RA BR OVC005 TEMPO 1322/1401 3SM -RA BR SCT005 OVC060 FM140100 07007KT 2SM -RA BR OVC003 FM140900 02010G17KT 2SM -RA BR OVC003
NOTAMs
Click for the latest NOTAMs
NOTAMs are issued by the DoD/FAA and will open in a separate window not controlled by AirNav.

 

 
 

FBO, Fuel Providers, and Aircraft Ground Support

  
 Business Name 
 
 Contact 
 
 Services / Description 
 
Fuel Prices
 
Comments
  
Sharp County Regional Airport Authority 870-710-0469
870-257-2289
[email]
Aviation fuel, Aircraft parking (ramp or tiedown), Hangar leasing / sales, Aircraft maintenance, Rental cars, Courtesy transportation, Pilots lounge / snooze room, ...

More info about Sharp County Regional Airport Authority
Phillips 66
100LL Jet A
AS --- $3.75 
SS $4.40 --- 
 Updated 03-Dec-2018
 
   1 read write
AS=Assisted/Self Service
SS=Self service
Update Fuel Prices
 

Would you like to see your business listed on this page?

 If your business provides an interesting product or service to pilots, flight crews, aircraft, or users of the Sharp County Regional Airport, you should consider listing it here.  To start the listing process, click on the button below
 
Add a business
 

Other Pages about Sharp County Regional Airport

Update a link
 
Copyright © AirNav, LLC. All rights reserved. Privacy Policy  Contact